Content
SEND FEEDBACK

Daily
Averages
Monthly
Summary
United States of America

CROOKSTON, MINNESOTA


Home > North America > United States > Minnesota
Elevation: 890 feet     Latitude: 47 47N     Longitude: 096 35W

WEATHER
 
SELECT A DAY
Number of Records: 463,245;   Date Range: 1/1/95 - 10/18/14
 
SHARE

PRINT THIS DATA

[ ← Previous Day ]
WEATHER ALMANAC - JANUARY 23, 2013
[ Next Day → ]
[ °C ]   °F
Weather ElementAverageHighLow
Temperature-8.9 °F1.4 °F (12:35 am)-18.4 °F (10:54 pm)
Dewpoint-14.9 °F-2.2 °F (12:35 am)-23.8 °F (6:55 pm)
Humidity75 %85 % (12:35 am)64 % (6:55 pm)
Barometer30.42 in30.68 in (10:35 pm)30.14 in (12:54 am)
Wind Speed14.8 mph29.9 mph (12:35 pm)
Wind Gust32.2 mph (11:55 am)
Weather ElementAverage
Visibility8.1 mi
Wind DirectionWNW (284.1 °)

Weather ElementTotal
Precipitation---
Heating Degree Days73.5 (Base 65)
Averaged from 70 records on January 23, 2013
WEATHER CONDITIONS BREAKOUT
WIND DIRECTION BREAKOUT
WEATHER BY HOUR - JANUARY 23, 2013
[ °C ]   °F
Local TimeTemperatureDewpointHumidityBarometerVisibilityWind DirectionWind SpeedGust SpeedPrecipitationEventsConditions
12:35 AM1.4 °F-2.2 °F85 %30.15 in7.0 miSouth (190°)5.8 mphOvercast
12:54 AM1.4 °F-2.2 °F85 %30.14 in7.0 miSSW (200°)6.9 mphSnowLight Snow
1:15 AM1.4 °F-2.2 °F85 %30.14 in10.0 miSSW (210°)5.8 mphSnowLight Snow
1:35 AM1.4 °F-2.2 °F85 %30.14 in4.0 miSW (220°)5.8 mphSnowLight Snow
1:54 AM-0.4 °F-4.0 °F85 %30.14 in10.0 miSW (230°)6.9 mphOvercast
2:15 AM1.4 °F-2.2 °F85 %30.14 in10.0 miWSW (240°)6.9 mphOvercast
2:34 AM-0.4 °F-4.0 °F85 %30.14 in4.0 miWSW (250°)4.6 mphSnowLight Snow
2:55 AM-0.4 °F-4.0 °F85 %30.14 in10.0 miWest (270°)4.6 mphSnowLight Snow
3:15 AM-2.2 °F-5.8 °F85 %30.14 in10.0 miWest (280°)4.6 mphSnowLight Snow
3:34 AM-4.0 °F-7.6 °F85 %30.15 in10.0 miWNW (290°)6.9 mphClear
3:55 AM-4.0 °F-7.6 °F85 %30.15 in10.0 miWNW (300°)6.9 mphClear
4:15 AM-4.0 °F-7.6 °F85 %30.16 in10.0 miNW (310°)9.2 mphClear
4:34 AM-4.0 °F-7.6 °F85 %30.16 in10.0 miNW (320°)10.4 mphClear
4:55 AM-2.2 °F-7.6 °F78 %30.17 in10.0 miNNW (330°)10.4 mphClear
5:15 AM-2.2 °F-5.8 °F85 %30.17 in10.0 miNNW (340°)13.8 mphClear
5:34 AM-2.2 °F-7.6 °F78 %30.19 in10.0 miNNW (340°)15.0 mphClear
5:55 AM-2.2 °F-7.6 °F78 %30.20 in10.0 miNorth (350°)17.3 mphClear
6:14 AM-4.0 °F-9.4 °F78 %30.22 in10.0 miNorth (350°)16.1 mphClear
6:35 AM-5.8 °F-9.4 °F84 %30.23 in10.0 miNorth (350°)16.1 mphClear
6:55 AM-5.8 °F-11.2 °F77 %30.24 in10.0 miNorth (350°)18.4 mphClear
7:14 AM-5.8 °F-11.2 °F77 %30.25 in10.0 miNorth (350°)18.4 mphClear
7:35 AM-5.8 °F-11.2 °F77 %30.26 in7.0 miNorth (350°)19.6 mphClear
7:55 AM-7.6 °F-11.2 °F84 %30.28 in10.0 miNorth (350°)18.4 mph25.3 mphScattered Clouds
8:14 AM-7.6 °F-11.2 °F84 %30.29 in10.0 miNorth (350°)17.3 mphScattered Clouds
8:35 AM-7.6 °F-11.2 °F84 %30.30 in10.0 miNNW (340°)13.8 mphScattered Clouds
8:54 AM-7.6 °F-13.0 °F77 %30.32 in10.0 miNorth (350°)18.4 mphScattered Clouds
9:15 AM-7.6 °F-13.0 °F77 %30.34 in10.0 miNorth (350°)20.7 mphClear
9:35 AM-7.6 °F-11.2 °F84 %30.35 in2.0 miNorth (350°)24.2 mphHaze
9:54 AM-7.6 °F-11.2 °F84 %30.37 in1.8 miNorth (350°)23.0 mphHaze
10:15 AM-7.6 °F-13.0 °F77 %30.39 in3.0 miNorth (350°)23.0 mph28.8 mphHaze
10:35 AM-7.6 °F-13.0 °F77 %30.40 in4.0 miNNW (340°)23.0 mph27.6 mphHaze
10:54 AM-7.6 °F-14.8 °F71 %30.42 in4.0 miNorth (350°)24.2 mph28.8 mphHaze
11:14 AM-7.6 °F-14.8 °F71 %30.43 in4.0 miNorth (350°)21.9 mph27.6 mphHaze
11:35 AM-7.6 °F-14.8 °F71 %30.43 in4.0 miNorth (360°)23.0 mph28.8 mphHaze
11:55 AM-7.6 °F-14.8 °F71 %30.44 in3.0 miNorth (350°)25.3 mph32.2 mphHaze
12:14 PM-7.6 °F-16.6 °F65 %30.45 in2.0 miNorth (350°)27.6 mph32.2 mphHaze
12:35 PM-7.6 °F-16.6 °F65 %30.46 in1.5 miNorth (350°)29.9 mphHaze
12:54 PM-7.6 °F-16.6 °F65 %30.47 in2.0 miNorth (350°)25.3 mphHaze
1:14 PM-7.6 °F-16.6 °F65 %30.47 in3.0 miNorth (350°)26.5 mph31.1 mphHaze
1:35 PM-7.6 °F-16.6 °F65 %30.48 in2.0 miNNW (340°)24.2 mphHaze
1:54 PM-9.4 °F-16.6 °F71 %30.49 in4.0 miNorth (350°)24.2 mphHaze
2:15 PM-9.4 °F-18.4 °F65 %30.50 in5.0 miNorth (350°)23.0 mph27.6 mphHaze
2:35 PM-9.4 °F-18.4 °F65 %30.51 in7.0 miNorth (360°)24.2 mphClear
3:15 PM-9.4 °F-18.4 °F65 %30.54 in7.0 miNorth (350°)21.9 mph28.8 mphClear
3:35 PM-11.2 °F-18.4 °F70 %30.55 in10.0 miNorth (350°)21.9 mphClear
3:54 PM-11.2 °F-18.4 °F70 %30.56 in10.0 miNorth (350°)18.4 mphClear
4:15 PM-11.2 °F-18.4 °F70 %30.56 in10.0 miNorth (360°)20.7 mphClear
4:35 PM-11.2 °F-18.4 °F70 %30.57 in10.0 miNorth (350°)18.4 mphClear
4:54 PM-13.0 °F-20.2 °F70 %30.58 in10.0 miNorth (360°)18.4 mphClear
5:15 PM-13.0 °F-20.2 °F70 %30.60 in10.0 miNorth (350°)13.8 mphClear
5:35 PM-14.8 °F-20.2 °F77 %30.61 in10.0 miNNW (340°)13.8 mphClear
5:54 PM-14.8 °F-22.0 °F70 %30.62 in10.0 miNNW (340°)15.0 mphClear
6:15 PM-14.8 °F-22.0 °F70 %30.63 in10.0 miNNW (340°)12.7 mphClear
6:34 PM-14.8 °F-22.0 °F70 %30.62 in10.0 miNNW (340°)15.0 mphClear
6:55 PM-14.8 °F-23.8 °F64 %30.63 in10.0 miNorth (350°)13.8 mphClear
7:15 PM-14.8 °F-23.8 °F64 %30.63 in10.0 miNorth (360°)15.0 mphClear
7:34 PM-16.6 °F-23.8 °F70 %30.64 in10.0 miNorth (350°)12.7 mphClear
7:55 PM-16.6 °F-23.8 °F70 %30.65 in10.0 miNorth (350°)13.8 mphClear
8:14 PM-16.6 °F-23.8 °F70 %30.66 in10.0 miNorth (360°)12.7 mphClear
8:34 PM-16.6 °F-23.8 °F70 %30.66 in10.0 miNorth (360°)10.4 mphClear
8:55 PM-16.6 °F-23.8 °F70 %30.64 in10.0 miNorth (10°)8.1 mphClear
9:14 PM-16.6 °F-23.8 °F70 %30.65 in10.0 miNorth (10°)9.2 mphClear
9:34 PM-16.6 °F-23.8 °F70 %30.66 in10.0 miNorth (10°)6.9 mphClear
9:55 PM-16.6 °F-23.8 °F70 %30.66 in10.0 miNNE (20°)6.9 mphClear
10:14 PM-16.6 °F-23.8 °F70 %30.67 in10.0 miNNE (30°)6.9 mphClear
10:35 PM-16.6 °F-23.8 °F70 %30.68 in10.0 miNNE (30°)4.6 mphClear
10:54 PM-18.4 °F-23.8 °F76 %30.67 in10.0 miNNE (30°)4.6 mphClear
11:14 PM-18.4 °F-23.8 °F76 %30.67 in10.0 miNNE (20°)3.5 mphClear
11:35 PM-16.6 °F-23.8 °F70 %30.67 in10.0 miNorth (10°)3.5 mphClear
11:54 PM-18.4 °F-23.8 °F76 %30.68 in10.0 miCalmClear
Hourly data recorded from KCKN, located miles away from Crookston, Minnesota







STORIES FROM OUR PARTNERS